Voltar ao catálogo

STARLINK-30712

AtivoComunicaçõesVLEO
NORAD 57935·PAYLOAD·🇺🇸 United States

Lançado Sep 25, 2023 de Vandenberg Space Force Base

Loading…

Próximas Passagens (próximas 24 horas)

TLE

AtualizadoSource: CelesTrak SupGP

Época: Sep 14, 2026, 20:51 UTC

1 57935C 23148A   26257.86923611  .00038096  00000+0  11254-2 0  2572
2 57935  53.1582 221.8238 0001421  96.4405 116.4129 15.34375491    14

Acompanhe STARLINK-30712 em tempo real com AllMySat

Download on the App Store